Daleville, AL

11:43 AM CST on December 09, 2016 (GMT -0600)
Cairns Army Air Field

Weather History for KOZR - November, 2013

Change the Weather History Date:

Tuesday, November 12, 2013

  Actual Average Record
Temperature  
Mean Temperature 56 °F -  
Max Temperature 73 °F 67 °F 82 °F (2003)
Min Temperature 38 °F 45 °F 30 °F (2011)
Degree Days  
Heating Degree Days 8    
Growing Degree Days 6 (Base 50)    
Moisture  
Dew Point 40 °F    
Average Humidity 61    
Maximum Humidity 91    
Minimum Humidity 36    
Precipitation  
Precipitation 0.00 in - - ()
Sea Level Pressure  
Sea Level Pressure 30.23 in    
Wind  
Wind Speed 8 mph (NNW)    
Max Wind Speed 21 mph    
Max Gust Speed 31 mph    
Visibility 10 miles    
Events      
Averages and records for this station are not official NWS values.
T = Trace of Precipitation, MM = Missing Value Source: NWS Daily Summary

Daily Weather History Graph

Daily Weather History Graph

Search for Another Location

Airport or City:

Trip Planner

Search our weather history database for the weather conditions in past years. The results will help you decide how hot, cold, wet, or windy it might be!

Date:

Astronomy

Nov. 12, 2013 Rise Set
Actual Time 6:07 AM CST 4:45 PM CST
Civil Twilight 5:42 AM CST 5:11 PM CST
Nautical Twilight 5:13 AM CST 5:40 PM CST
Astronomical Twilight 4:44 AM CST 6:09 PM CST
Moon 1:43 PM CST (11/12) 1:15 AM CST (11/12)
Length of Visible Light 11h 29m
Length of Day
10h 38m
Waxing Gibbous, 76% of the Moon is Illuminated
Nov 12
Waxing Gibbous
Nov 17
Full
Nov 25
Last Quarter
Dec 2
New
Dec 9
First Quarter

Hourly Weather History & Observations

Time (CST) Temp. Windchill Dew Point Humidity Pressure Visibility Wind Dir Wind Speed Gust Speed Precip Events Conditions
12:58 AM 48.0 °F - 45.0 °F 89% 30.16 in 10.0 mi NE 3.5 mph - N/A   Clear
1:58 AM 48.4 °F - 45.5 °F 90% 30.16 in 10.0 mi North 2.3 mph - N/A   Clear
2:58 AM 45.9 °F - 43.3 °F 91% 30.17 in 10.0 mi North 1.2 mph - N/A   Clear
3:58 AM 45.9 °F - 43.0 °F 90% 30.17 in 10.0 mi NNW 2.3 mph - N/A   Clear
4:58 AM 45.7 °F - 43.2 °F 91% 30.18 in 10.0 mi Calm Calm - N/A   Clear
5:58 AM 45.7 °F - 42.4 °F 88% 30.19 in 10.0 mi NNW 2.3 mph - N/A   Clear
6:58 AM 46.9 °F - 43.7 °F 88% 30.20 in 10.0 mi NW 4.6 mph - N/A   Clear
7:58 AM 54.5 °F - 44.2 °F 68% 30.21 in 10.0 mi NNW 3.5 mph - N/A   Clear
8:58 AM 60.6 °F - 43.7 °F 54% 30.21 in 10.0 mi NW 9.2 mph - N/A   Clear
9:58 AM 67.6 °F - 42.6 °F 40% 30.20 in 10.0 mi NNW 10.4 mph - N/A   Clear
10:58 AM 72.3 °F - 44.8 °F 37% 30.18 in 10.0 mi NNW 12.7 mph 19.6 mph N/A   Clear
11:58 AM 73.2 °F - 45.3 °F 37% 30.16 in 10.0 mi NNW 16.1 mph 21.9 mph N/A   Clear
12:58 PM 73.0 °F - 44.6 °F 36% 30.15 in 10.0 mi North 13.8 mph 19.6 mph N/A   Clear
1:58 PM 72.9 °F - 44.8 °F 37% 30.14 in 10.0 mi NNW 13.8 mph 23.0 mph N/A   Clear
2:58 PM 71.8 °F - 45.3 °F 39% 30.15 in 10.0 mi NNW 17.3 mph 21.9 mph N/A   Clear
3:58 PM 67.6 °F - 45.1 °F 44% 30.18 in 10.0 mi NW 15.0 mph 23.0 mph N/A   Clear
4:58 PM 61.0 °F - 45.9 °F 58% 30.22 in 10.0 mi NNW 15.0 mph 23.0 mph N/A   Clear
5:58 PM 56.7 °F - 42.3 °F 59% 30.26 in 10.0 mi NNW 15.0 mph 31.1 mph N/A   Clear
6:58 PM 51.8 °F - 38.7 °F 61% 30.30 in 10.0 mi North 18.4 mph 23.0 mph N/A   Clear
7:58 PM 48.6 °F - 35.8 °F 61% 30.34 in 10.0 mi North 12.7 mph 28.8 mph N/A   Clear
8:58 PM 45.9 °F 39.7 °F 30.6 °F 55% 30.37 in 10.0 mi North 13.8 mph - N/A   Clear
9:58 PM 43.0 °F 34.2 °F 24.8 °F 49% 30.39 in 10.0 mi North 20.7 mph 27.6 mph N/A   Clear
10:58 PM 40.3 °F 30.7 °F 20.1 °F 45% 30.40 in 10.0 mi North 20.7 mph 25.3 mph N/A   Clear
11:58 PM 38.3 °F 31.4 °F 20.1 °F 48% 30.41 in 10.0 mi North 10.4 mph - N/A   Clear